Zurück zum Katalog

STARLINK-5240

AktivKommunikationVLEO
NORAD 54187·PAYLOAD·🇺🇸 United States

Gestartet Oct 28, 2022 von Vandenberg Space Force Base

Loading…

Nächste Überflüge (nächste 24 Stunden)

TLE

AktuellSource: CelesTrak SupGP

Epoche: Sep 14, 2026, 21:10 UTC

1 54187C 22141AG  26257.88243056  .00025458  00000+0  75203-3 0  2573
2 54187  53.1576 220.1186 0001311  96.9550 121.9866 15.34383607    18

Verfolge STARLINK-5240 in Echtzeit mit AllMySat

Download on the App Store